Weather History for Rolla, MO

Change the Weather History Date:

Saturday, April 27, 2013

  Actual Average Record
Temperature  
Mean Temperature 49 °F 59 °F  
Max Temperature 51 °F 70 °F 89 °F (1899)
Min Temperature 46 °F 48 °F 33 °F (1904)
Degree Days  
Heating Degree Days 16 7  
Month to date heating degree days 375 294  
Since 1 July heating degree days 4780 4698  
Cooling Degree Days 0 1  
Month to date cooling degree days 6 21  
Year to date cooling degree days 6 25  
Growing Degree Days 0 (Base 50)    
Moisture  
Dew Point 48 °F    
Average Humidity 95    
Maximum Humidity 100    
Minimum Humidity 89    
Precipitation  
Precipitation 0.70 in 0.15 in 1.31 in (1963)
Month to date precipitation 6.20 3.75  
Year to date precipitation 14.17 11.30  
Sea Level Pressure  
Sea Level Pressure 30.04 in    
Wind  
Wind Speed 8 mph (NNE)    
Max Wind Speed 16 mph    
Max Gust Speed 21 mph    
Visibility 5 miles    
Events Fog , Rain    
T = Trace of Precipitation, MM = Missing Value Source: NWS Daily Summary

Daily Weather History Graph

Daily Weather History Graph

Search for Another Location

Airport:

Trip Planner

Search our weather history database for the weather conditions in past years. The results will help you decide how hot, cold, wet, or windy it might be!

Date:

Astronomy

Apr. 27, 2013 Rise Set
Actual Time 6:15 AM CDT 7:54 PM CDT
Civil Twilight 5:47 AM CDT 8:22 PM CDT
Nautical Twilight 5:13 AM CDT 8:56 PM CDT
Astronomical Twilight 4:37 AM CDT 9:33 PM CDT
Moon 10:22 PM CDT (4/27) 7:35 AM CDT (4/27)
Length of Visible Light 14h 35m
Length of Day
13h 39m
Waning Gibbous, 95% of the Moon is Illuminated
Apr 27
Waning Gibbous
May 2
Last Quarter
May 9
New
May 17
First Quarter
May 24
Full

Hourly Weather History & Observations

Time (CDT) Temp. Windchill Dew Point Humidity Pressure Visibility Wind Dir Wind Speed Gust Speed Precip Events Conditions
12:13 AM 46.4 °F 42.4 °F 44.6 °F 93% 30.24 in 10.0 mi ESE 8.1 mph - 0.00 in   Overcast
12:46 AM 46.4 °F 42.9 °F 44.6 °F 93% 30.23 in 10.0 mi East 6.9 mph - 0.00 in   Overcast
12:53 AM 46.9 °F - 46.0 °F 97% 30.24 in 10.0 mi East 4.6 mph - 0.00 in   Overcast
1:53 AM 46.9 °F - 46.0 °F 97% 30.21 in 10.0 mi East 6.9 mph - 0.02 in   Overcast
2:53 AM 46.9 °F - 45.0 °F 93% 30.18 in 10.0 mi East 6.9 mph - 0.01 in   Overcast
3:53 AM 46.0 °F 41.9 °F 45.0 °F 96% 30.16 in 9.0 mi ENE 8.1 mph - N/A   Overcast
4:53 AM 46.9 °F - 45.0 °F 93% 30.15 in 8.0 mi ENE 8.1 mph - N/A   Overcast
5:32 AM 46.4 °F 43.5 °F 46.4 °F 100% 30.13 in 3.0 mi East 5.8 mph 16.1 mph N/A   Overcast
5:53 AM 46.9 °F - 46.0 °F 97% 30.14 in 3.0 mi East 6.9 mph - 0.00 in   Overcast
6:32 AM 46.4 °F 41.5 °F 46.4 °F 100% 30.12 in 4.0 mi East 10.4 mph 18.4 mph 0.03 in Rain Light Rain
6:53 AM 46.9 °F - 46.0 °F 97% 30.12 in 2.5 mi East 12.7 mph - 0.04 in Rain Light Rain
7:00 AM 46.4 °F 41.5 °F 46.4 °F 100% 30.11 in 4.0 mi East 10.4 mph - 0.00 in Rain Light Rain
7:53 AM 46.9 °F - 46.0 °F 97% 30.11 in 6.0 mi East 10.4 mph - 0.01 in Rain Light Rain
8:53 AM 48.0 °F - 46.0 °F 93% 30.11 in 1.8 mi East 12.7 mph - 0.07 in Rain Heavy Rain
9:12 AM 48.2 °F - 46.4 °F 93% 30.09 in 2.0 mi East 12.7 mph - 0.10 in Rain Rain
9:24 AM 48.2 °F - 46.4 °F 93% 30.10 in 3.0 mi East 10.4 mph - 0.12 in Rain Light Rain
9:43 AM 48.2 °F - 46.4 °F 93% 30.10 in 8.0 mi East 10.4 mph - 0.13 in Rain Light Rain
9:53 AM 48.0 °F - 46.9 °F 96% 30.11 in 10.0 mi East 12.7 mph - 0.13 in   Overcast
10:53 AM 48.9 °F - 46.9 °F 93% 30.09 in 10.0 mi East 16.1 mph 20.7 mph N/A   Overcast
11:53 AM 50.0 °F - 48.0 °F 93% 30.09 in 10.0 mi ESE 10.4 mph - N/A   Overcast
12:53 PM 50.0 °F - 48.0 °F 93% 30.07 in 5.0 mi ESE 8.1 mph - N/A   Overcast
1:53 PM 50.0 °F - 48.9 °F 96% 30.04 in 7.0 mi East 6.9 mph - 0.01 in   Overcast
2:53 PM 50.0 °F - 48.9 °F 96% 30.03 in 3.0 mi Calm Calm - 0.04 in Rain Heavy Rain
2:59 PM 50.0 °F - 48.2 °F 94% 30.01 in 1.8 mi ENE 5.8 mph - 0.02 in Rain Rain
3:11 PM 51.8 °F - 50.0 °F 94% 30.00 in 2.0 mi NE 8.1 mph - 0.05 in Rain Rain
3:21 PM 51.8 °F - 50.0 °F 94% 30.00 in 3.0 mi ENE 4.6 mph - 0.06 in Rain Light Rain
3:53 PM 51.1 °F - 50.0 °F 96% 30.00 in 3.0 mi NNE 3.5 mph - 0.08 in Rain Rain
3:57 PM 51.8 °F - 48.2 °F 88% 30.00 in 2.0 mi NE 3.5 mph - 0.02 in Rain Rain
4:05 PM 51.8 °F - 50.0 °F 94% 29.99 in 1.8 mi NNE 3.5 mph - 0.05 in Rain Rain
4:13 PM 51.8 °F - 50.0 °F 94% 29.99 in 1.8 mi North 4.6 mph - 0.08 in Rain Rain
4:27 PM 51.8 °F - 50.0 °F 94% 30.00 in 1.5 mi NNW 3.5 mph - 0.13 in Rain Heavy Rain
4:38 PM 51.8 °F - 50.0 °F 94% 29.99 in 2.5 mi North 4.6 mph - 0.16 in Rain Rain
4:53 PM 51.1 °F - 48.9 °F 92% 29.99 in 2.0 mi North 6.9 mph - 0.20 in Rain Rain
5:14 PM 51.8 °F - 50.0 °F 94% 29.99 in 3.0 mi NNE 4.6 mph - 0.04 in Rain Rain
5:41 PM 51.8 °F - 50.0 °F 94% 29.99 in 4.0 mi NNW 4.6 mph - 0.05 in Rain Light Rain
5:53 PM 51.1 °F - 48.9 °F 92% 29.99 in 5.0 mi North 4.6 mph - 0.06 in Rain Light Rain
6:53 PM 51.1 °F - 48.9 °F 92% 29.98 in 6.0 mi North 5.8 mph - 0.03 in Rain Light Rain
7:53 PM 50.0 °F - 48.9 °F 96% 29.98 in 10.0 mi North 4.6 mph - 0.00 in   Overcast
8:02 PM 50.0 °F - 48.2 °F 94% 29.97 in 10.0 mi North 4.6 mph - N/A   Overcast
8:11 PM 50.0 °F - 48.2 °F 94% 29.97 in 9.0 mi North 4.6 mph - N/A   Overcast
8:18 PM 50.0 °F - 48.2 °F 94% 29.96 in 9.0 mi North 4.6 mph - N/A   Overcast
8:36 PM 50.0 °F - 48.2 °F 94% 29.96 in 7.0 mi North 4.6 mph - N/A   Overcast
8:53 PM 50.0 °F - 48.9 °F 96% 29.97 in 9.0 mi NW 4.6 mph - N/A   Overcast
9:27 PM 50.0 °F - 48.2 °F 94% 29.98 in 1.8 mi NW 4.6 mph - N/A   Overcast
9:48 PM 50.0 °F - 48.2 °F 94% 29.97 in 0.8 mi NNW 5.8 mph - N/A   Mist
9:53 PM 50.0 °F - 48.9 °F 96% 29.98 in 0.8 mi NNW 5.8 mph - N/A   Mist
10:01 PM 50.0 °F - 48.2 °F 94% 29.98 in 2.0 mi NNW 6.9 mph - N/A   Overcast
10:09 PM 50.0 °F - 48.2 °F 94% 29.97 in 4.0 mi NNW 5.8 mph - N/A   Overcast
10:19 PM 50.0 °F - 48.2 °F 94% 29.97 in 1.8 mi NW 4.6 mph - N/A   Overcast
10:31 PM 50.0 °F - 48.2 °F 94% 29.97 in 0.8 mi NW 5.8 mph - N/A   Mist
10:45 PM 48.2 °F - 48.2 °F 100% 29.96 in 2.0 mi NW 6.9 mph - N/A   Overcast
10:53 PM 48.9 °F - 48.9 °F 100% 29.97 in 2.5 mi NW 5.8 mph - N/A   Overcast
11:22 PM 48.2 °F - 48.2 °F 100% 29.96 in 3.0 mi NW 8.1 mph - N/A   Overcast
11:29 PM 48.2 °F - 48.2 °F 100% 29.96 in 1.8 mi NW 5.8 mph - N/A   Overcast
11:43 PM 48.2 °F - 48.2 °F 100% 29.95 in 0.8 mi NW 6.9 mph - N/A   Mist
11:53 PM 48.9 °F - 48.9 °F 100% 29.96 in 0.5 mi NW 4.6 mph - N/A Fog Fog